Starlink 4553

operational
NORAD ID: 53577 Int'l Des: 2022-101 Owner: SPXS Country: US Constellation: starlink
LEOCIRCULAR

关于 Starlink 4553

正在加载描述...

实时位置

正在加载3D地球...

即将过境

高度历史

Altitude vs Time

uPlot chart will show altitude changes over time

两行轨道根数

1 53577U 22101BC 25354.43310793 -.00000148 00000-0 88171-5 0 9996
2 53577 53.2181 49.6695 0001269 77.9967 282.1168 15.08841153185302
Epoch: Dec 20, 2025 • Age: 15 hours

当前状态

高度 540.4 km
速度 7.60 km/s
星下点 24.74°N, 96.59°E
发射日期 Aug 19, 2022
运行时间 3.3 years
类型 internet

技术详情

分类 Payload
质量 300.00 kg
干质量 290.00 kg
总质量 300.00 kg
长度 0.20 m
直径 2.80 m
跨度 9.00 m
形状 Box + pan
制造商 SPXS
平台类型 Starlink
阶段状态 In Orbit
所有者/国家 SPXS/US

大型星座

Loading constellations...